Location: Alafon
(8.4500°N, 4.2333°E)
Time: 09:47:28
(UTC+00:00)

A-11 Canister half - Pass Details

Date: 13 August 2021
Orbit: 1515 x 1685 km, 47.2° (Epoch: 21 September)

Event Time Altitude Azimuth Distance (km) Brightness Sun altitude
Rises 18:37:44 0° 347° (NNW) 4,874 12.1 -9.8°
Reaches altitude 10° 18:45:37 10° 26° (NNE) 3,924 11.0 -11.7°
Maximum altitude 18:47:02 10° 34° (NE) 3,902 11.0 -12.0°
Drops below altitude 10° 18:48:27 10° 42° (NE) 3,933 10.9 -12.3°
Enters shadow 18:53:26 - 68° (ENE) 4,428 10.9 -13.5°
Sets 18:56:21 0° 80° (E) 4,932 - -14.2°
